Weather History for KTBN - July, 2013

Change the Weather History Date:

Wednesday, July 24, 2013

  Actual Average (KVIH) Record (KVIH)
Temperature  
Mean Temperature 74 °F 78 °F  
Max Temperature 82 °F 89 °F 103 °F (2005)
Min Temperature 66 °F 67 °F 53 °F (2003)
Degree Days  
Heating Degree Days 0 0  
Month to date heating degree days 0  
Since 1 June heating degree days 14  
Since 1 July heating degree days 0  
Cooling Degree Days 8 13  
Month to date cooling degree days 293  
Year to date cooling degree days 635  
Since 1 June cooling degree days 528  
Growing Degree Days 24 (Base 50)    
Moisture  
Dew Point 65 °F    
Average Humidity 79    
Maximum Humidity 100    
Minimum Humidity 51    
Precipitation  
Precipitation 0.00 in 0.15 in 2.23 in (2004)
Month to date precipitation 3.47  
Year to date precipitation 24.91  
Sea Level Pressure  
Sea Level Pressure 29.97 in    
Wind  
Wind Speed 4 mph (NNE)    
Max Wind Speed 9 mph    
Max Gust Speed -    
Visibility 10 miles    
Events      
T = Trace of Precipitation, MM = Missing Value Source: NWS Daily Summary

Daily Weather History Graph

Daily Weather History Graph

Search for Another Location

Airport or City:

Trip Planner

Search our weather history database for the weather conditions in past years. The results will help you decide how hot, cold, wet, or windy it might be!

Date:

Astronomy

Jul. 24, 2013 Rise Set
Actual Time 6:05 AM CDT 8:23 PM CDT
Civil Twilight 5:36 AM CDT 8:53 PM CDT
Nautical Twilight 4:59 AM CDT 9:30 PM CDT
Astronomical Twilight 4:19 AM CDT 10:09 PM CDT
Moon 9:34 PM CDT (7/24) 8:22 AM CDT (7/24)
Length of Visible Light 15h 17m
Length of Day
14h 18m
Waning Gibbous, 94% of the Moon is Illuminated
Jul 24
Waning Gibbous
Jul 29
Last Quarter
Aug 6
New
Aug 14
First Quarter
Aug 20
Full

Hourly Weather History & Observations

Time (CDT) Temp. Heat Index Dew Point Humidity Pressure Visibility Wind Dir Wind Speed Gust Speed Precip Events Conditions
12:58 AM 68.2 °F - 68.2 °F 100% 29.91 in 10.0 mi NW 1.2 mph - N/A   Clear
1:58 AM 67.8 °F - 67.8 °F 100% 29.90 in 10.0 mi NNE 1.2 mph - N/A   Partly Cloudy
2:58 AM 68.0 °F - 68.0 °F 100% 29.90 in 10.0 mi North 2.3 mph - N/A   Clear
3:58 AM 68.2 °F - 68.2 °F 100% 29.89 in 10.0 mi North 5.8 mph - N/A   Clear
4:58 AM 67.5 °F - 67.5 °F 100% 29.91 in 10.0 mi North 5.8 mph - N/A   Partly Cloudy
5:58 AM 66.6 °F - 66.6 °F 100% 29.93 in 10.0 mi NNE 4.6 mph - N/A   Clear
6:58 AM 67.3 °F - 67.3 °F 100% 29.94 in 10.0 mi North 3.5 mph - N/A   Overcast
7:08 AM 68.0 °F - 66.2 °F 94% 29.96 in 10.0 mi North 3.5 mph - N/A   Overcast
7:58 AM 67.8 °F - 66.2 °F 95% 29.96 in 10.0 mi North 4.6 mph - N/A   Overcast
8:13 AM 68.0 °F - 66.2 °F 94% 29.98 in 10.0 mi NNE 8.1 mph - N/A   Overcast
8:58 AM 71.2 °F - 66.0 °F 84% 29.99 in 10.0 mi North 2.3 mph - N/A   Mostly Cloudy
9:58 AM 73.0 °F - 66.4 °F 80% 29.98 in 10.0 mi Variable 3.5 mph - N/A   Partly Cloudy
10:58 AM 75.7 °F - 67.8 °F 76% 29.98 in 10.0 mi Variable 1.2 mph - N/A   Partly Cloudy
11:38 AM 77.0 °F - 68.0 °F 74% 30.01 in 10.0 mi NNW 5.8 mph - N/A   Mostly Cloudy
11:58 AM 77.7 °F - 68.9 °F 74% 29.99 in 10.0 mi North 4.6 mph - N/A   Mostly Cloudy
12:03 PM 78.8 °F - 68.0 °F 69% 30.01 in 10.0 mi NNW 4.6 mph - N/A   Scattered Clouds
12:58 PM 79.9 °F - 68.0 °F 67% 30.00 in 10.0 mi NNW 5.8 mph - N/A   Scattered Clouds
1:58 PM 80.6 °F 82.7 °F 65.8 °F 61% 29.99 in 10.0 mi Variable 6.9 mph - N/A   Partly Cloudy
2:58 PM 81.0 °F 82.7 °F 64.8 °F 58% 29.99 in 10.0 mi NNE 9.2 mph - N/A   Scattered Clouds
3:58 PM 81.5 °F 82.4 °F 61.7 °F 51% 29.99 in 10.0 mi North 8.1 mph - N/A   Clear
4:58 PM 81.1 °F 82.3 °F 62.4 °F 53% 29.98 in 10.0 mi NNE 8.1 mph - N/A   Partly Cloudy
5:58 PM 80.2 °F 81.3 °F 61.7 °F 53% 29.98 in 10.0 mi NE 5.8 mph - N/A   Partly Cloudy
6:58 PM 78.8 °F - 61.9 °F 56% 29.98 in 10.0 mi North 5.8 mph - N/A   Clear
7:58 PM 75.7 °F - 62.2 °F 63% 29.99 in 10.0 mi NNE 8.1 mph - N/A   Clear
8:58 PM 72.3 °F - 61.5 °F 69% 29.99 in 10.0 mi NNE 4.6 mph - N/A   Clear
9:58 PM 70.9 °F - 61.3 °F 72% 30.02 in 10.0 mi NE 3.5 mph - N/A   Clear
10:58 PM 69.3 °F - 61.3 °F 76% 30.03 in 10.0 mi ENE 2.3 mph - N/A   Clear
11:58 PM 67.8 °F - 61.3 °F 80% 30.03 in 10.0 mi East 2.3 mph - N/A   Clear